Location: Crescent
(42.8242°N, 73.7329°W)
Time: 17:15:41
(UTC+00:00)

Vanguard 1 - Pass Details

Date: 19 February 2026
Orbit: 653 x 3818 km, 34.2° (Epoch: 5 March)

Event Time Altitude Azimuth Distance (km) Brightness Sun altitude
Rises 02:42:12 0° 281° (W) 6,932 15.1 -45.3°
Reaches altitude 10° 02:47:12 10° 272° (W) 6,265 14.6 -46.0°
Maximum altitude 03:04:15 32° 220° (SW) 5,254 13.6 -48.5°
Enters shadow 03:09:22 29° 201° (SSW) 5,406 13.5 -49.2°
Drops below altitude 10° 03:22:21 10° 167° (SSE) 6,556 - -50.9°
Sets 03:27:54 0° 158° (SSE) 7,270 - -51.6°
